Location: Rounton
(54.4000°N, 1.3500°W)
Time: 05:42:24
(UTC+00:00)

A-11 Canister half - Pass Details

Date: 04 December 2021
Orbit: 1516 x 1684 km, 47.2° (Epoch: 21 January)

Event Time Altitude Azimuth Distance (km) Brightness Sun altitude
Rises 09:16:40 0° 252° (WSW) 4,806 11.4 6.1°
Reaches altitude 10° 09:19:47 10° 248° (WSW) 3,844 11.0 6.3°
Maximum altitude 09:29:19 57° 174° (S) 1,894 10.1 7.1°
Drops below altitude 10° 09:39:08 10° 99° (E) 3,943 11.8 7.9°
Sets 09:42:22 0° 96° (E) 4,937 12.2 8.1°
